• In Deutschland
  • Länderverzeichnis
  • Für 7 Tage
  • Wassertemperatur
  • Satellitenkarten
  • Wetterkarte
  • Widgets
  • user-avatar
    Anmelden

    Stündliche Wetter Enkamp

    Heute, 26 Juni, Montag

    Zeit Temperatur Niederschläge Wind Luftdruck Luftfeuchtigkeit
    00:00 +13°C° 0 mm 1 m/S 625 mmHg 90%
    01:00 +13°C° 0,1 mm 1 m/S 624 mmHg 88%
    02:00 +12°C° 0,1 mm 1 m/S 624 mmHg 87%
    03:00 +12°C° 0,1 mm 1 m/S 623 mmHg 85%
    04:00 +13°C° 0 mm 1 m/S 623 mmHg 79%
    05:00 +14°C° 0 mm 1 m/S 624 mmHg 73%
    06:00 +15°C° 0 mm 2 m/S 624 mmHg 66%
    07:00 +17°C° 0 mm 2 m/S 624 mmHg 58%
    08:00 +18°C° 0 mm 2 m/S 625 mmHg 50%
    09:00 +20°C° 0 mm 3 m/S 625 mmHg 43%
    10:00 +21°C° 0,1 mm 3 m/S 626 mmHg 41%
    11:00 +22°C° 0,1 mm 3 m/S 626 mmHg 40%
    12:00 +23°C° 0,1 mm 4 m/S 626 mmHg 39%
    13:00 +22°C° 0,4 mm 3 m/S 626 mmHg 43%
    14:00 +21°C° 0,4 mm 3 m/S 625 mmHg 47%
    15:00 +20°C° 0,4 mm 3 m/S 625 mmHg 52%
    16:00 +20°C° 0,5 mm 3 m/S 624 mmHg 55%
    17:00 +19°C° 0,5 mm 2 m/S 624 mmHg 58%
    18:00 +19°C° 0,5 mm 2 m/S 624 mmHg 62%
    19:00 +16°C° 0,3 mm 1 m/S 623 mmHg 69%
    20:00 +14°C° 0,3 mm 1 m/S 622 mmHg 77%
    21:00 +10°C° 0,3 mm 0 m/S 622 mmHg 85%
    22:00 +11°C° 0 mm 1 m/S 622 mmHg 85%
    23:00 +10°C° 0 mm 1 m/S 622 mmHg 86%

    Morgen, 27 Juni, Dienstag

    Zeit Temperatur Niederschläge Wind Luftdruck Luftfeuchtigkeit
    00:00 +10°C° 0 mm 1 m/S 622 mmHg 86%
    01:00 +10°C° 0 mm 1 m/S 621 mmHg 85%
    02:00 +10°C° 0 mm 1 m/S 621 mmHg 84%
    03:00 +10°C° 0 mm 1 m/S 621 mmHg 82%
    04:00 +11°C° 0 mm 1 m/S 621 mmHg 78%
    05:00 +13°C° 0 mm 1 m/S 622 mmHg 73%
    06:00 +14°C° 0 mm 1 m/S 623 mmHg 69%
    07:00 +16°C° 0 mm 2 m/S 623 mmHg 61%
    08:00 +19°C° 0 mm 2 m/S 624 mmHg 52%
    09:00 +21°C° 0 mm 3 m/S 625 mmHg 44%
    10:00 +22°C° 0 mm 3 m/S 625 mmHg 41%
    11:00 +23°C° 0 mm 4 m/S 625 mmHg 37%
    12:00 +25°C° 0 mm 4 m/S 625 mmHg 34%
    13:00 +23°C° 0,3 mm 4 m/S 624 mmHg 39%
    14:00 +23°C° 0,3 mm 4 m/S 624 mmHg 44%
    15:00 +22°C° 0,3 mm 4 m/S 623 mmHg 50%
    16:00 +21°C° 0,9 mm 4 m/S 622 mmHg 56%
    17:00 +19°C° 0,9 mm 3 m/S 622 mmHg 61%
    18:00 +18°C° 0,9 mm 2 m/S 621 mmHg 67%
    19:00 +16°C° 0,8 mm 2 m/S 620 mmHg 72%
    20:00 +14°C° 0,8 mm 1 m/S 620 mmHg 78%
    21:00 +12°C° 0,8 mm 1 m/S 619 mmHg 83%
    22:00 +11°C° 0,1 mm 1 m/S 619 mmHg 85%
    23:00 +10°C° 0,1 mm 1 m/S 619 mmHg 87%

    übermorgen, 28 Juni, Mittwoch

    Zeit Temperatur Niederschläge Wind Luftdruck Luftfeuchtigkeit
    00:00 +9°C° 0,1 mm 1 m/S 619 mmHg 89%
    01:00 +9°C° 0 mm 1 m/S 618 mmHg 89%
    02:00 +9°C° 0 mm 1 m/S 618 mmHg 89%
    03:00 +8°C° 0 mm 1 m/S 618 mmHg 89%
    04:00 +9°C° 0,1 mm 1 m/S 618 mmHg 87%
    05:00 +10°C° 0,1 mm 1 m/S 619 mmHg 84%
    06:00 +11°C° 0,1 mm 1 m/S 619 mmHg 81%
    07:00 +12°C° 0,2 mm 2 m/S 619 mmHg 77%
    08:00 +13°C° 0,2 mm 2 m/S 620 mmHg 73%
    09:00 +13°C° 0,2 mm 3 m/S 620 mmHg 69%
    10:00 +13°C° 0,4 mm 3 m/S 620 mmHg 67%
    11:00 +14°C° 0,4 mm 3 m/S 620 mmHg 64%
    12:00 +14°C° 0,4 mm 3 m/S 620 mmHg 62%
    13:00 +14°C° 0,6 mm 3 m/S 620 mmHg 62%
    14:00 +14°C° 0,6 mm 3 m/S 620 mmHg 62%
    15:00 +15°C° 0,6 mm 4 m/S 619 mmHg 61%
    16:00 +14°C° 0,7 mm 3 m/S 619 mmHg 63%
    17:00 +13°C° 0,7 mm 3 m/S 619 mmHg 65%
    18:00 +13°C° 0,7 mm 3 m/S 619 mmHg 66%
    19:00 +11°C° 0,5 mm 3 m/S 619 mmHg 71%
    20:00 +9°C° 0,5 mm 2 m/S 618 mmHg 76%
    21:00 +8°C° 0,5 mm 2 m/S 618 mmHg 82%
    22:00 +7°C° 0,1 mm 2 m/S 618 mmHg 83%
    23:00 +6°C° 0,1 mm 2 m/S 618 mmHg 85%

    29 Juni, Donnerstag

    Zeit Temperatur Niederschläge Wind Luftdruck Luftfeuchtigkeit
    00:00 +6°C° 0,1 mm 2 m/S 618 mmHg 87%
    01:00 +5°C° 0 mm 2 m/S 618 mmHg 88%
    02:00 +5°C° 0 mm 2 m/S 618 mmHg 90%
    03:00 +4°C° 0 mm 2 m/S 618 mmHg 91%
    04:00 +5°C° 0 mm 2 m/S 618 mmHg 88%
    05:00 +6°C° 0 mm 2 m/S 619 mmHg 85%
    06:00 +6°C° 0 mm 2 m/S 619 mmHg 82%
    07:00 +8°C° 0 mm 2 m/S 620 mmHg 73%
    08:00 +10°C° 0 mm 2 m/S 621 mmHg 64%
    09:00 +13°C° 0 mm 2 m/S 622 mmHg 56%
    10:00 +13°C° 0,2 mm 2 m/S 622 mmHg 55%
    11:00 +12°C° 0,2 mm 3 m/S 622 mmHg 54%
    12:00 +12°C° 0,2 mm 3 m/S 622 mmHg 54%
    13:00 +13°C° 0,6 mm 4 m/S 622 mmHg 53%
    14:00 +13°C° 0,6 mm 4 m/S 622 mmHg 52%
    15:00 +13°C° 0,6 mm 4 m/S 622 mmHg 51%
    16:00 +12°C° 0,6 mm 4 m/S 622 mmHg 55%
    17:00 +11°C° 0,6 mm 3 m/S 621 mmHg 58%
    18:00 +10°C° 0,6 mm 3 m/S 621 mmHg 62%
    19:00 +8°C° 0,2 mm 2 m/S 621 mmHg 69%
    20:00 +6°C° 0,2 mm 2 m/S 620 mmHg 77%
    21:00 +4°C° 0,2 mm 1 m/S 620 mmHg 84%
    22:00 +4°C° 0 mm 1 m/S 620 mmHg 86%
    23:00 +3°C° 0 mm 1 m/S 619 mmHg 87%

    30 Juni, Freitag

    Zeit Temperatur Niederschläge Wind Luftdruck Luftfeuchtigkeit
    00:00 +3°C° 0 mm 1 m/S 619 mmHg 89%
    01:00 +2°C° 0 mm 1 m/S 619 mmHg 90%
    02:00 +2°C° 0 mm 1 m/S 619 mmHg 91%
    03:00 0°C° 0 mm 0 m/S 618 mmHg 92%
    04:00 +3°C° 0 mm 1 m/S 619 mmHg 87%
    05:00 +5°C° 0 mm 1 m/S 620 mmHg 82%
    06:00 +6°C° 0 mm 1 m/S 621 mmHg 77%
    07:00 +7°C° 0 mm 2 m/S 622 mmHg 65%
    08:00 +9°C° 0 mm 2 m/S 623 mmHg 52%
    09:00 +11°C° 0 mm 3 m/S 624 mmHg 39%
    10:00 +12°C° 0 mm 3 m/S 625 mmHg 36%
    11:00 +14°C° 0 mm 3 m/S 625 mmHg 33%
    12:00 +15°C° 0 mm 4 m/S 625 mmHg 30%
    13:00 +16°C° 0,1 mm 3 m/S 625 mmHg 33%
    14:00 +16°C° 0,1 mm 3 m/S 625 mmHg 36%
    15:00 +16°C° 0,1 mm 3 m/S 625 mmHg 39%
    16:00 +13°C° 0,3 mm 3 m/S 625 mmHg 47%
    17:00 +12°C° 0,3 mm 3 m/S 624 mmHg 56%
    18:00 +12°C° 0,3 mm 2 m/S 624 mmHg 64%
    19:00 +9°C° 0,2 mm 2 m/S 624 mmHg 70%
    20:00 +8°C° 0,2 mm 2 m/S 624 mmHg 77%
    21:00 +7°C° 0,2 mm 2 m/S 624 mmHg 83%
    22:00 +6°C° 0,1 mm 2 m/S 624 mmHg 85%
    23:00 +5°C° 0,1 mm 2 m/S 624 mmHg 87%

    1 Juli, Samstag

    Zeit Temperatur Niederschläge Wind Luftdruck Luftfeuchtigkeit
    00:00 +5°C° 0,1 mm 2 m/S 623 mmHg 88%
    01:00 +5°C° 0 mm 2 m/S 623 mmHg 89%
    02:00 +4°C° 0 mm 2 m/S 623 mmHg 89%
    03:00 +4°C° 0 mm 2 m/S 623 mmHg 89%
    04:00 +5°C° 0 mm 2 m/S 624 mmHg 86%
    05:00 +6°C° 0 mm 2 m/S 624 mmHg 82%
    06:00 +7°C° 0 mm 2 m/S 625 mmHg 79%
    07:00 +8°C° 0 mm 3 m/S 626 mmHg 70%
    08:00 +10°C° 0 mm 3 m/S 627 mmHg 62%
    09:00 +12°C° 0 mm 3 m/S 628 mmHg 53%
    10:00 +12°C° 0 mm 3 m/S 628 mmHg 51%
    11:00 +13°C° 0 mm 3 m/S 628 mmHg 49%
    12:00 +14°C° 0 mm 3 m/S 629 mmHg 47%
    13:00 +14°C° 0 mm 3 m/S 629 mmHg 48%
    14:00 +14°C° 0 mm 3 m/S 629 mmHg 49%
    15:00 +14°C° 0 mm 3 m/S 629 mmHg 50%
    16:00 +13°C° 0 mm 3 m/S 629 mmHg 54%
    17:00 +12°C° 0 mm 3 m/S 629 mmHg 59%
    18:00 +11°C° 0 mm 3 m/S 629 mmHg 64%
    19:00 +10°C° 0,1 mm 3 m/S 628 mmHg 71%
    20:00 +8°C° 0,1 mm 3 m/S 628 mmHg 77%
    21:00 +5°C° 0,1 mm 3 m/S 628 mmHg 84%
    22:00 +5°C° 0 mm 3 m/S 628 mmHg 85%
    23:00 +5°C° 0 mm 3 m/S 628 mmHg 85%
    Mehr zeigen